Location: Bishop�s Knoyle
(51.0728°N, 2.1714°W)
Time: 22:05:34
(UTC+00:00)

Lacrosse 5 rocket - Pass Details

Date: 18 September 2020
Orbit: 460 x 636 km, 57.0° (Epoch: 31 October)

Event Time Altitude Azimuth Distance (km) Brightness Sun altitude
Rises 19:44:52 0° 265° (W) 2,756 6.1 -14.6°
Reaches altitude 10° 19:47:08 10° 272° (W) 1,891 5.2 -14.9°
Maximum altitude 19:51:17 45° 346° (NNW) 821 2.4 -15.5°
Enters shadow 19:55:15 12° 58° (ENE) 1,837 3.7 -16.1°
